This demonstration page uses our WeatherBlox Daily Observations layout. Learn more.

38.88101, -77.10428

Hourly Observations for October 27, 2016

Temp ( °F °C ) Dew Point ( °F °C ) Humidity (%) Winds ( mph kmh ) Pressure ( in mb ) Visibility ( mi km ) Precip ( " mm )
12:52 am 00:52 Cloudy 52 11.1 42 5.6 69 69 SE 5 7 30.39 1029 10 16.09344 0 0
1:52 am 01:52 Cloudy 53 11.7 42 5.6 66 66 SE 7 11 30.39 1029 10 16.09344 0 0
2:52 am 02:52 Cloudy 52 11.1 42 5.6 69 69 ESE 3 6 30.36 1028 10 16.09344 0 0
3:52 am 03:52 Clear 51 10.6 42 5.6 71 71 Calm 30.36 1028 10 16.09344 0 0
4:52 am 04:52 Cloudy 51 10.6 43 6.1 74 74 SE 3 6 30.33 1027 10 16.09344 0 0
5:52 am 05:52 Mostly Cloudy 51 10.6 44 6.7 77 77 SSE 7 11 30.33 1027 10 16.09344 0 0
6:30 am 06:30 Mostly Cloudy 52 11 45 7 77 77 SSE 6 9 30.33 1027 10 16.09344 0 0
6:52 am 06:52 Mostly Cloudy 51 10.6 45 7.2 80 80 SE 7 11 30.3 1026 10 16.09344 0 0
7:52 am 07:52 Mostly Cloudy 51 10.6 47 8.3 86 86 S 7 11 30.3 1026 10 16.09344 0 0
8:10 am 08:10 Mostly Cloudy 52 11 48 9 88 88 S 10 17 30.3 1026 10 16.09344 0 0
8:17 am 08:17 Mostly Cloudy 52 11.1 48 8.9 86 86 N 6 9 30.3 1026 10 16.09344 0 0
8:52 am 08:52 Mostly Cloudy 53 11.7 48 8.9 83 83 S 6 9 30.3 1026 10 16.09344 0 0
9:52 am 09:52 Cloudy 54 12.2 50 10 87 87 S 7 11 30.3 1026 10 16.09344 0 0
10:52 am 10:52 Cloudy 56 13.3 51 10.6 84 84 S 7 11 30.27 1025 10 16.09344 0 0
11:52 am 11:52 Cloudy 60 15.6 52 11.1 75 75 S 12 19 30.24 1024 10 16.09344 0 0
12:52 pm 12:52 Cloudy with Light Rain 61 16.1 53 11.7 75 75 SW 13 20 30.21 1023 6 9.656064 0.001 0.001
1:52 pm 13:52 Cloudy with Light Rain 60 15.6 57 13.9 90 90 S 8 13 30.15 1021 8 12.874752 0.01 0.254
2:26 pm 14:26 Cloudy with Nearby Thunderstorms 60 15.6 57 13.9 90 90 S 13 20 30.15 1021 9 14.484096 0.01 0.254
2:49 pm 14:49 Cloudy with Light Rain 61 16 57 14 88 88 S 9 15 30.12 1020 10 16.09344 0.02 0.508
2:52 pm 14:52 Cloudy with Light Rain 60 15.6 58 14.4 93 93 S 9 15 30.12 1020 10 16.09344 0.02 0.508
3:52 pm 15:52 Cloudy 62 16.7 59 15 90 90 S 9 15 30.12 1020 10 16.09344 0.001 0.001
4:52 pm 16:52 Mostly Cloudy 63 17.2 61 16.1 93 93 S 9 15 30.09 1019 10 16.09344 0.001 0.001
5:52 pm 17:52 Mostly Cloudy 62 16.7 60 15.6 93 93 SSW 9 15 30.06 1018 10 16.09344 0 0
6:52 pm 18:52 Mostly Cloudy 62 16.7 60 15.6 93 93 SSW 10 17 30.06 1018 10 16.09344 0 0
7:52 pm 19:52 Cloudy 62 16.7 61 16.1 96 96 SSW 10 17 30.06 1018 10 16.09344 0.001 0.001
8:52 pm 20:52 Mostly Cloudy 63 17.2 61 16.1 93 93 SW 9 15 30.06 1018 10 16.09344 0.001 0.001
9:52 pm 21:52 Mostly Cloudy 61 16.1 60 15.6 97 97 SSW 7 11 30.06 1018 10 16.09344 0 0
10:52 pm 22:52 Partly Cloudy 60 15.6 60 15.6 100 100 SSW 6 9 30.06 1018 10 16.09344 0 0
11:07 pm 23:07 Mostly Cloudy 61 16.1 60 15.6 97 97 NNW 12 19 30.09 1019 10 16.09344 0 0
11:27 pm 23:27 Partly Cloudy 62 16.7 60 15.6 93 93 WSW 6 9 30.09 1019 10 16.09344 0 0
11:52 pm 23:52 Partly Cloudy 61 16.1 58 14.4 90 90 WNW 5 7 30.09 1019 10 16.09344 0 0

Powered by AerisWeather